sat.trackr.live / text

‹ back to catalog

NEXTSAT-1

NORAD 43811 · 2018-099BF

PAYLOAD ACTIVE UNKNOWN

§ Identity

Operator
Country
SKOR
Launch date
2018-12-03
Launch site
AFWTR
Launch vehicle
Mass (kg)
RCS (m²)

External: N2YO · Heavens-Above · Gunter

§ Orbital elements

Epoch: 2026-05-25T02:37:59.850336Z

Period
95.46 min
Inclination
97.4087°
Eccentricity
0.0013773
Mean motion
15.08480208 rev/d
Perigee alt
531.3 km
Apogee alt
550.4 km
Semi-major
6,919.0 km
B*
1.5240e-4
RAAN
188.6353°
Arg perigee
61.1295°
Mean anomaly
299.1314°
Rev number
40,840

§ Raw data

NEXTSAT-11 43811U 18099BF  26145.10972049  .00002319  00000+0  15240-3 0  99932 43811  97.4087 188.6353 0013773  61.1295 299.1314 15.08480208408404

JSON: /api/v1/satellites/43811 · /tle

For live sub-satellite position, see the globe view (requires WebGL).

§ Visibility from observer

Set your observer location to see the next 7 days of passes ≥ 10°. The values pass through the URL so the page stays shareable.

No JS? Fill the form by hand. The geolocation button needs JavaScript.